星链-5311 (STARLINK-5311 )

导读 | 星芒AI

STARLINK-5311 是 SpaceX 星链计划中的一颗低轨通信卫星,属于星链第三代(v1.5)卫星系列。该卫星于2023年发射,旨在为全球用户提供高速互联网服务。它运行在约550公里高的近地轨道,采用先进推进系统和激光通信技术,提升网络效率与稳定性。星链项目通过部署大量此类卫星,构建覆盖全球的宽带网络,尤其服务于偏远地区。STARLINK-5311 的加入进一步增强了星链系统的容量与性能。

基本信息
目录编号:
55288
目录名称:
STARLINK-5311
国际标识:
2023-010V
轨道中心:
EARTH
卫星名称:
星链-5311
卫星全名:
星链-5311 (STARLINK-5311 )
卫星状态:
在轨 (已飞行1020 天)
发射日期:
2023-01-19 UTC
国别 :
美国 (US)
星等 :
--
轨道信息
数据来源 国际轨道数据
星历时间: 2025-11-04T19:24:48+0800
8小时前
查看轨道信息
半长轴: 6950.199km
偏心率: 0.0002924
轨道倾角: 70.000°
近地点辐角 267.250°
升交点赤经 340.152°
平近点角 92.832°
近地点: 570.031km
远地点: 574.097km
周期: 96.107分钟
每日圈数: 14.983282
详细信息
固有亮度:
5
最大亮度:
2.5
卫星平台:
Starlink v1.5
覆盖范围:
全球
运营商:
太空探索技术公司
运营商所在国:
美国
制造商(研发单位):
太空探索技术公司
制造商所在国:
美国
使用方式:
暂无
卫星简介
星链(Starlink)计划是由太空探索技术公司(SpaceX)提出的一个巨型低轨卫星互联网星座项目,计划在2019年至2024年间在太空搭建由约1.2万颗卫星组成的“星链”网络,其中1584颗将部署在地球上空550千米处的近地轨道,并从2020年开始工作。该卫星仍在工作。
2D轨道图
3D轨道图
轨道高度分析图
轨道倾角分析图
轨道综合分析图
查看轨道综合分析图